Regional Weather Roundup
Issued by NWS

Home | Current Version | Previous Version | Text Only | Print | Product List | Glossary On
Versions: 1 2 3 4 5 6 7 8 9 10 11 12 13 14 15 16 17 18 19 20 21 22 23 24 25 26 27 28 29 30 31 32 33 34 35 36 37 38 39 40 41 42 43 44 45 46 47 48 49 50
000
ASUS43 KMKX 311821
RWRWI

WISCONSIN REGIONAL WEATHER ROUNDUP
NATIONAL WEATHER SERVICE MILWAUKEE/SULLIVAN WI
100 PM CDT THU JUL 31 2014

NOTE: "FAIR" INDICATES FEW OR NO CLOUDS BELOW 12,000 FEET WITH NO
SIGNIFICANT WEATHER AND/OR OBSTRUCTIONS TO VISIBILITY.

WIZ001-002-006>008-014>016-023>028-311900-
NORTHWEST WISCONSIN

CITY           SKY/WX    TMP DP  RH WIND       PRES   REMARKS
SUPERIOR ARPT  SUNNY     78  59  51 W6        29.96F HX  80
6HR MIN TEMP:  57; 6HR MAX TEMP:  78;

ASHLAND        MOSUNNY   78  53  41 W10G16    29.97F
6HR MIN TEMP:  57; 6HR MAX TEMP:  78;

HAYWARD        MOSUNNY   75  60  59 VRB5      30.00S
6HR MIN TEMP:  54; 6HR MAX TEMP:  75;

SIREN          PTSUNNY   78  61  55 W10       30.00F HX  80
6HR MIN TEMP:  60; 6HR MAX TEMP:  79;

RICE LAKE      MOSUNNY   77  60  55 W9        30.02S
6HR MIN TEMP:  57; 6HR MAX TEMP:  77;

LADYSMITH      PTSUNNY   75  63  65 W7        30.01F
6HR MIN TEMP:  56; 6HR MAX TEMP:  75;

EAU CLAIRE     SUNNY     80  57  45 W14G21    30.00  HX  80
6HR MIN TEMP:  59; 6HR MAX TEMP:  81;

MENOMONIE      CLEAR     80  56  43 SW14      30.02S HX  80
6HR MIN TEMP:  61; 6HR MAX TEMP:  80;

NEW RICHMOND   SUNNY     79  54  42 W10       30.03S
6HR MIN TEMP:  58; 6HR MAX TEMP:  79;

OSCEOLA        SUNNY     79  60  51 SW10      30.04S HX  80
6HR MIN TEMP:  55; 6HR MAX TEMP:  79;

$$

WIZ003>005-009-010-017-018-311900-
NORTH CENTRAL WISCONSIN

CITY           SKY/WX    TMP DP  RH WIND       PRES   REMARKS
WOODRUFF       SUNNY     77  50  38 NW9       29.99S
6HR MIN TEMP:  57; 6HR MAX TEMP:  77;

RHINELANDER    MOSUNNY   74  48  39 NW7       30.00F
6HR MIN TEMP:  56; 6HR MAX TEMP:  75;

EAGLE RIVER    MOSUNNY   73  46  37 NW9G16    29.98F
6HR MIN TEMP:  50; 6HR MAX TEMP:  74;

LAND O LAKES   MOSUNNY   74  48  40 NW8       30.00S
6HR MIN TEMP:  47; 6HR MAX TEMP:  74;

PHILLIPS       MOSUNNY   74  56  53 NW5       29.99S
6HR MIN TEMP:  56; 6HR MAX TEMP:  75;

TOMAHAWK       MOSUNNY   73  53  49 CALM      30.00F
6HR MIN TEMP:  48; 6HR MAX TEMP:  73;

MEDFORD        PTSUNNY   73  62  68 W9        30.01S
6HR MIN TEMP:  57; 6HR MAX TEMP:  73;

MERRILL        MOSUNNY   76  58  53 W8        29.98F
6HR MIN TEMP:  50; 6HR MAX TEMP:  76;

$$

WIZ029-030-035-036-043>047-311900-
CENTRAL WISCONSIN

CITY           SKY/WX    TMP DP  RH WIND       PRES   REMARKS
WAUSAU         PTSUNNY   76  59  55 W9        29.98F
6HR MIN TEMP:  59; 6HR MAX TEMP:  77;

MOSINEE        PTSUNNY   77  61  57 W14G20    30.01S
MARSHFIELD     MOSUNNY   77  61  57 W13       30.00F
6HR MIN TEMP:  59; 6HR MAX TEMP:  78;

STEVENS POINT  MOSUNNY   76  59  56 NW9       29.99F
6HR MIN TEMP:  56; 6HR MAX TEMP:  76;

WAUPACA        MOSUNNY   82  56  40 W14G20    29.97F HX  82
6HR MIN TEMP:  61; 6HR MAX TEMP:  82;

WAUTOMA        PTSUNNY   80  59  48 W10       29.99F HX  81
6HR MIN TEMP:  57; 6HR MAX TEMP:  82;

WISC RAPIDS    MOSUNNY   78  60  53 W12       30.01F
6HR MIN TEMP:  59; 6HR MAX TEMP:  79;

CAMP DOUGLAS   PTSUNNY   78  63  60 W10       30.02S HX  80
6HR MIN TEMP:  58; 6HR MAX TEMP:  78;

$$

WIZ011>013-019>022-031-037>040-048>050-311900-
NORTHEAST WISCONSIN

CITY           SKY/WX    TMP DP  RH WIND       PRES   REMARKS
ANTIGO         CLOUDY    73  53  48 NW8       29.99F
6HR MIN TEMP:  52; 6HR MAX TEMP:  75;

STURGEON BAY   SUNNY     75  52  43 W8        29.97F
6HR MIN TEMP:  57; 6HR MAX TEMP:  75;

GREEN BAY      MOSUNNY   77  63  61 VRB7      29.97F
6HR MIN TEMP:  57; 6HR MAX TEMP:  78;

MANITOWOC      PTSUNNY   77  62  59 W7        29.98F
6HR MIN TEMP:  61; 6HR MAX TEMP:  77;

APPLETON       PTSUNNY   75  61  60 SW10      29.99F
CLINTONVILLE   PTSUNNY   79  54  41 NW6       29.96F
OSHKOSH        PTSUNNY   78  61  55 SW6       29.98F HX  80
6HR MIN TEMP:  62; 6HR MAX TEMP:  78;

$$

WIZ032>034-041-042-053>061-311900-
SOUTHWEST WISCONSIN

CITY           SKY/WX    TMP DP  RH WIND       PRES   REMARKS
LA CROSSE      SUNNY     81  62  52 W8        30.02F HX  82
6HR MIN TEMP:  63; 6HR MAX TEMP:  82;

SPARTA         SUNNY     79  55  43 W10       30.03F
6HR MIN TEMP:  55; 6HR MAX TEMP:  79; 6HR PCP:  0.01;

VIROQUA        MOCLDY    76  60  56 W6G16     30.06S
6HR MIN TEMP:  58; 6HR MAX TEMP:  77;

BOSCOBEL       MOSUNNY   83  56  39 W12       30.04F HX  82
6HR MIN TEMP:  59; 6HR MAX TEMP:  83;

PRAIRIE DU CHI PTSUNNY   78  53  41 W7        30.04F
6HR MIN TEMP:  58; 6HR MAX TEMP:  81;

PLATTEVILLE    FAIR      77  59  52 W12       30.07S
6HR MIN TEMP:  58; 6HR MAX TEMP:  77;

$$

WIZ056-057-062-063-064-067-068-311900-
SOUTH CENTRAL WISCONSIN

CITY           SKY/WX    TMP DP  RH WIND       PRES   REMARKS
BARABOO/DELLS  SUNNY     79  52  39 NW12      30.02F
6HR MIN TEMP:  60; 6HR MAX TEMP:  81;

LONE ROCK      MOSUNNY   83  60  45 W10       30.03F HX  83
6HR MIN TEMP:  60; 6HR MAX TEMP:  83;

WATERTOWN      PTSUNNY   79  59  50 W10G17    30.01F HX  80
6HR MIN TEMP:  58; 6HR MAX TEMP:  79;

MADISON        PTSUNNY   80  58  46 W9G18     30.03S HX  80
6HR MIN TEMP:  64; 6HR MAX TEMP:  81;

MIDDLETON      FAIR      78  55  44 W9G18     30.04S
6HR MIN TEMP:  62; 6HR MAX TEMP:  81;

MONROE         MOSUNNY   77  57  50 W9        30.05S
JANESVILLE     MOSUNNY   82  54  36 W12G17    30.03R HX  81
$$

WIZ051-052-058>065-066-070>072-311900-
SOUTHEAST WISCONSIN

CITY           SKY/WX    TMP DP  RH WIND       PRES   REMARKS
MILWAUKEE      MOSUNNY   81  58  45 NW14G21   30.01S HX  81
6HR MIN TEMP:  63; 6HR MAX TEMP:  81;

WAUKESHA       PTSUNNY   75  59  57 W9G17     30.03S
MILWAUKEE/TIMM SUNNY     79  57  47 W15G21    30.01F HX  80
RACINE         MOSUNNY   80  58  46 W14G22    30.02F HX  80
6HR MIN TEMP:  62; 6HR MAX TEMP:  81;

BURLINGTON     MOSUNNY   77  58  51 W8        30.02F
6HR MIN TEMP:  58; 6HR MAX TEMP:  78;

KENOSHA        MOSUNNY   80  60  50 W10       30.02S HX  81
6HR MIN TEMP:  61; 6HR MAX TEMP:  81;

FOND DU LAC    SUNNY     79  60  52 W8        29.99F HX  80
6HR MIN TEMP:  60; 6HR MAX TEMP:  79;

SHEBOYGAN      MOSUNNY   78  60  53 W9        29.99F
6HR MIN TEMP:  59; 6HR MAX TEMP:  78;

WEST BEND      MOSUNNY   77  57  50 W12G17    30.00F
JUNEAU         MOSUNNY   77  54  44 W10G16    30.02F
6HR MIN TEMP:  58; 6HR MAX TEMP:  77;

$$

LSZ147-162-311900-
LAKE SUPERIOR

STATION/POSITION TIME  TEMP    WIND        PRES    WAVE
                       AIR SEA DIR/SP/G            HT/PER
                 (UTC) (F)     (DEG/KT/KT) (MB)    (FT/S)
W MID LAKE BUOY  1750   51 43  230/  6/  6 1014.5F   0
PORT WING        1700   70     270/  7/  8 1015.2S
SAXON HARBOR     1700           50/  3/  4 1015.2
$$

LMZ867-665-643>646-311900-
LAKE MICHIGAN

STATION/POSITION TIME  TEMP    WIND        PRES    WAVE
                       AIR SEA DIR/SP/G            HT/PER
                 (UTC) (F)     (DEG/KT/KT) (MB)    (FT/S)
N MID LAKE BUOY  1750   58 55  210/ 12/ 12 1014.0F   1
NORTHPORT PIER   1700   67     140/  5/  8 1014.2F
SISTER BAY       1725   75     270/ 11/ 11   N/A
ALGOMA LAKESHORE 1721          230/  8/  9   N/A
KEWAUNEE LAKESHO 1800   59     180/ 10/ 11 1014.4F
SHEBOYGAN LAKESH 1800   63     160/ 10/ 11 1015.8S
PORT WASHINGTON  1730          150/  7/ 13 1016.3S
ATWATER BUOY     1800   70      90/  4     1017.0S
MILWAUKEE LAKESH 1800   78     280/  8/ 13   N/A
S MID LAKE BUOY  1750   64 63  210/  6/  6 1016.9F   1
KENOSHA   LAKESH 1800   79     290/ 11/ 18 1015.9S
$$

TC  - TEMPERATURE IN CELSIUS
VSB - VISIBILITY IN STATUTE MILES
WCI - WIND CHILL INDEX
HX  - HEAT INDEX



USA.gov is the U.S. government's official web portal to all federal, state and local government web resources and services.